Temp
24 23 23 22 22 23 23 23 24 22 22 22 21 21 20 20 20 19 19 19 19 19 19 18 19 19 19 19 19 18 18 17 18 20 19 17 16 16 16 16 16 16 17
25 23 23 22 25 25 25 22 23 24 22 22 21 21 20 19 19 19 19 19 19 19 19 19 19 19 18 18 19 18 18 18 17 18 18 18 18 17 16 15 16 16 16
25 24 23 22 23 24 23 24 24 24 22 22 21 21 20 19 19 19 19 19 19 19 19 19 19 18 18 19 18 18 18 17 17 15 17 18 18 17 17 16 16 16 16
26 24 22 22 23 24 22 24 23 23 23 21 21 21 20 19 19 19 19 19 19 19 19 19 19 20 18 18 18 17 17 17 18 17 17 18 18 18 17 17 18 18 17
25 24 23 22 21 21 19 19 20 20 18 20 21 21 21 20 20 20 19 19 19 19 19 20 19 19 19 19 18 18 17 17 18 18 18 19 19 18 18 17 17 17 17
25 24 23 22 21 20 18 17 20 18 19 18 18 20 20 20 20 21 20 20 19 19 19 19 18 19 19 19 18 18 17 16 16 16 17 17 17 16 17 16 16 16 17
23 23 22 21 20 19 18 17 19 19 20 19 17 20 21 20 21 21 21 20 19 19 19 19 18 18 18 17 17 17 16 16 15 14 14 15 15 15 14 14 14 12 12
23 23 22 21 20 19 18 18 18 18 20 18 19 21 20 20 20 21 20 19 18 18 18 18 17 18 16 16 15 16 16 15 14 14 14 14 13 13 12 12 11 11 11
23 22 22 21 20 19 18 17 18 17 17 17 18 17 18 18 20 21 20 19 17 18 18 18 17 17 16 16 15 15 15 15 14 13 13 13 13 13 11 10 11 12 13
23 22 21 20 20 19 18 17 17 17 16 17 18 19 21 21 21 20 21 20 18 16 16 17 17 16 16 15 14 14 14 15 13 13 13 13 12 12 11 11 11 11 12
23 21 20 19 19 19 18 17 17 17 18 18 18 19 19 21 19 21 20 19 18 16 17 17 15 16 15 14 14 13 13 12 12 12 13 13 13 13 14 13 12 12 11
21 20 19 19 18 17 17 18 17 18 17 17 16 18 20 20 20 20 19 18 17 16 17 17 14 15 14 13 13 12 12 11 12 13 13 14 13 13 13 12 11 11 11
20 19 18 18 17 18 18 16 16 15 17 17 17 19 19 20 18 18 17 17 17 14 15 14 15 14 14 13 12 11 11 12 12 12 13 13 12 12 11 12 12 12 11
19 18 18 18 17 17 17 17 16 16 17 17 18 17 18 16 16 15 15 15 14 13 14 13 14 14 14 12 11 11 10 11 11 11 11 11 12 12 12 12 12 11 10
18 18 18 18 18 17 16 16 17 16 17 17 18 18 19 17 16 15 14 14 15 14 14 13 13 13 13 12 11 11 11 11 11 11 11 11 12 12 12 12 12 11 10
18 18 18 18 18 18 16 14 16 16 17 16 16 17 16 17 16 16 15 15 14 14 13 14 14 14 13 13 12 12 11 10 10 10 11 11 11 11 11 11 12 12 10
19 18 18 18 19 17 16 16 17 12 14 15 16 16 16 17 15 14 14 13 13 13 13 14 14 13 12 12 11 11 11 10 8 10 10 10 10 11 11 12 11 10 9
18 17 18 19 18 15 15 15 16 16 17 14 13 15 14 14 13 13 13 12 12 12 13 13 13 12 11 11 10 10 10 10 10 10 10 10 10 10 11 11 11 9 9
18 19 19 19 18 17 15 15 16 15 17 15 12 12 12 12 12 12 12 13 13 13 12 12 11 11 10 10 9 9 8 9 8 9 10 10 10 10 11 11 12 11 10
18 19 18 17 15 14 14 15 15 15 15 15 15 14 11 11 12 12 12 12 12 12 11 11 10 9 9 9 8 8 9 9 9 9 9 9 10 10 11 11 12 12 12
17 17 17 17 17 17 17 17 16 15 16 16 16 14 12 13 14 14 13 12 12 11 10 10 9 9 8 8 7 8 8 9 8 8 9 9 9 10 10 11 12 12 12
17 17 18 18 17 16 16 15 15 16 16 16 15 12 12 12 14 13 12 11 11 10 10 9 9 9 8 7 7 8 8 8 8 8 8 9 9 10 10 11 11 12 12
16 17 17 16 16 15 15 15 16 16 16 16 15 14 12 13 13 13 12 11 10 10 9 8 8 8 7 6 6 6 7 7 7 6 7 8 9 9 10 11 11 11 11
17 17 17 16 16 17 16 16 16 15 16 15 15 14 14 12 12 11 12 11 10 9 8 8 8 8 6 6 6 6 6 5 5 6 6 7 9 9 9 10 11 11 11
16 16 16 16 16 16 15 16 16 16 15 15 14 12 12 12 13 12 12 11 10 9 8 8 7 7 6 6 6 6 5 6 6 6 6 7 8 8 9 10 10 11 10
16 16 15 15 15 15 15 16 16 15 15 15 15 14 14 14 13 13 11 11 10 9 9 8 7 7 6 6 5 6 6 6 5 6 6 7 8 9 9 9 9 10 10
Height
771 775 780 785 789 795 800 798 798 809 810 813 815 819 821 823 825 827 830 831 831 831 832 831 831 831 831 831 830 830 831 831 829 821 821 821 817 815 814 813 811 808 805
760 767 772 776 780 781 784 798 804 800 809 810 810 814 817 818 820 823 825 827 828 829 829 827 827 828 826 827 826 825 825 824 824 820 816 815 812 810 808 806 805 802 798
755 760 764 767 771 775 778 783 791 793 807 811 812 812 813 817 817 818 820 821 821 823 823 823 821 823 822 821 821 822 820 820 818 817 813 810 807 804 801 798 797 795 791
747 751 755 757 759 763 771 779 788 793 799 807 808 809 812 814 814 815 816 817 815 815 818 816 816 816 816 817 817 817 816 814 812 811 807 803 801 798 795 793 788 787 783
740 744 745 749 758 765 771 780 785 794 813 813 810 808 807 809 808 810 813 812 811 812 810 809 810 811 811 810 810 810 810 808 806 804 801 796 793 791 789 786 781 778 775
734 737 743 748 754 758 766 771 774 786 782 799 809 805 807 806 803 806 807 807 806 808 807 805 806 806 806 806 805 804 804 803 802 800 796 792 791 788 785 781 776 771 764
729 732 737 741 746 750 756 764 769 773 776 778 791 794 795 799 798 801 802 802 802 800 800 801 801 802 800 801 800 799 799 797 796 796 794 791 788 783 781 776 770 767 761
724 728 733 737 742 746 749 754 760 767 764 770 775 780 785 790 794 795 797 798 798 796 795 796 796 797 797 796 796 795 793 793 793 791 789 786 784 779 775 771 765 759 754
720 723 726 730 734 738 741 748 755 759 763 767 772 778 782 784 786 787 788 789 793 794 792 790 790 790 791 791 790 791 789 789 788 785 781 778 775 770 766 764 758 753 744
713 717 721 726 731 736 743 745 752 758 765 766 771 776 778 776 775 778 777 774 778 786 787 785 786 786 785 786 787 785 785 784 784 781 776 773 770 765 761 758 753 747 740
710 712 713 718 722 726 735 740 747 754 758 765 764 768 774 772 774 775 773 773 774 779 783 782 783 782 781 782 782 781 781 781 781 777 772 767 763 760 755 752 747 743 735
704 712 712 716 719 723 729 736 742 750 750 750 759 766 767 767 769 768 769 769 770 777 779 777 777 778 778 778 779 777 779 779 777 773 769 763 759 755 750 745 739 733 728
702 709 709 715 719 721 726 732 739 748 748 747 755 753 761 757 762 764 764 764 768 773 776 774 774 775 774 774 775 776 776 776 772 769 764 761 758 752 745 739 733 727 718
703 712 715 717 717 721 723 728 734 741 744 746 750 754 754 750 757 760 761 763 767 772 771 771 772 772 772 773 775 775 773 772 770 765 762 758 754 748 741 736 730 722 713
706 712 715 717 718 721 725 729 735 735 739 742 744 750 747 747 754 758 761 764 766 765 766 767 769 771 772 773 773 772 771 769 766 763 759 755 750 745 739 734 728 720 712
712 716 717 718 721 723 728 729 732 735 738 741 744 746 743 746 750 752 756 758 760 762 764 765 766 768 768 768 767 767 768 766 764 762 758 753 748 743 737 732 726 719 711
715 717 716 719 722 726 730 731 734 737 737 741 742 741 741 744 748 752 755 758 760 763 764 764 764 767 765 765 766 764 763 763 761 759 756 752 747 742 737 732 726 720 711
713 716 718 720 723 727 731 732 733 733 735 738 739 740 743 746 749 752 754 757 759 760 761 761 763 765 763 764 763 762 761 760 759 758 754 751 746 741 736 732 726 721 713
712 716 718 719 721 725 726 727 729 734 734 735 739 742 745 747 750 751 754 756 757 759 759 760 760 762 762 762 761 760 759 759 758 756 753 750 746 741 737 732 726 720 715
711 714 717 718 719 721 724 727 729 730 733 735 739 742 746 748 750 751 752 753 755 757 758 758 759 760 760 760 759 759 758 757 756 755 753 750 746 742 737 732 727 721 715
713 715 718 719 721 720 723 725 728 730 731 734 737 739 742 745 746 747 750 753 755 756 757 758 757 757 758 758 757 757 757 757 756 754 753 750 746 742 738 733 728 723 718
712 713 717 718 720 721 723 725 727 728 729 732 735 738 741 743 744 746 748 752 754 755 755 755 756 756 756 756 756 757 757 757 756 755 753 750 747 743 739 734 729 725 720
711 714 715 717 719 719 721 723 725 727 728 731 734 737 739 741 742 745 747 749 751 752 752 753 754 754 754 755 755 756 757 757 756 755 754 751 747 744 741 735 731 728 724
711 713 716 718 718 719 721 722 724 726 727 730 733 735 737 739 741 743 745 746 748 749 750 751 752 753 753 754 755 755 756 756 755 755 753 751 748 745 742 739 734 731 727
712 715 716 716 718 719 720 721 722 724 726 728 730 731 734 736 737 739 742 743 745 746 748 749 750 751 752 752 753 754 754 753 753 753 753 751 749 746 743 741 739 735 733
714 715 716 717 718 720 720 720 722 722 723 724 725 727 729 731 734 736 738 739 741 743 745 746 748 750 750 751 752 752 752 751 752 752 751 751 749 746 744 743 741 738 737
Wind_Speed
30 31 29 26 29 27 27 30 26 25 24 22 22 20 17 16 14 13 13 12 12 12 12 11 12 12 12 12 12 13 15 14 15 24 20 17 19 20 19 18 20 20 20
35 31 30 31 36 38 37 29 25 26 26 26 23 21 19 16 14 14 13 13 13 13 12 10 12 10 11 13 13 15 15 16 18 20 26 23 20 22 21 21 22 20 22
30 30 31 34 36 38 38 34 35 26 26 25 22 22 20 16 16 16 17 14 13 13 13 13 13 12 13 12 13 14 15 17 16 17 23 25 22 21 23 23 22 23 23
31 32 32 35 42 45 37 37 31 26 27 26 24 22 18 16 17 15 15 15 15 14 15 14 15 15 13 12 12 14 15 15 16 17 21 23 23 21 20 23 25 25 27
29 31 34 33 28 26 24 23 24 16 17 22 25 24 21 22 17 18 17 15 15 15 14 15 15 15 15 14 13 15 14 15 16 19 21 22 22 22 22 24 27 28 29
27 30 26 24 23 24 25 27 36 37 31 27 36 28 26 21 19 20 18 16 14 16 16 14 15 18 18 17 16 17 17 16 19 20 20 20 22 23 24 25 27 28 20
26 26 24 22 24 27 30 33 41 38 34 35 35 34 33 29 23 21 19 19 18 17 16 16 15 14 17 15 16 17 17 17 17 15 16 19 22 24 24 27 26 25 26
22 22 20 21 23 26 31 36 40 34 33 37 36 35 34 29 27 20 17 16 18 17 15 16 16 18 12 14 13 14 14 12 11 12 14 17 20 24 23 23 28 29 28
19 20 21 23 25 29 32 34 34 31 30 27 26 22 19 21 21 22 16 14 18 22 17 16 14 13 13 14 13 13 14 14 12 16 20 23 27 26 22 20 23 21 23
17 17 18 20 21 23 26 28 22 16 16 19 17 15 19 21 23 25 24 21 18 24 17 15 13 12 13 14 12 10 11 11 13 17 20 20 19 20 21 16 19 20 24
12 16 18 20 23 23 24 22 18 19 19 19 12 22 17 15 20 20 23 15 14 16 15 10 7 10 9 10 9 7 8 12 15 16 19 19 18 18 18 18 20 21 26
14 14 15 18 21 25 26 22 20 24 26 22 21 18 15 18 19 20 19 17 11 13 15 9 6 7 8 9 9 10 12 13 13 16 16 17 18 20 21 22 25 26 30
15 16 17 19 19 25 21 23 22 18 17 18 21 13 17 8 10 15 13 9 12 13 9 6 7 9 11 11 11 11 10 11 12 13 14 16 18 20 21 23 26 26 28
13 12 15 18 19 19 21 22 20 20 17 18 2 9 9 6 6 6 6 7 10 8 4 4 8 11 8 7 7 7 7 9 11 12 13 16 18 20 21 22 25 26 28
17 17 18 19 20 19 18 17 12 11 12 11 14 16 8 5 8 10 9 8 8 5 5 4 5 6 7 7 6 7 7 8 10 11 13 16 18 19 21 23 22 24 22
15 16 15 15 15 17 14 11 10 10 11 10 10 7 6 6 6 8 10 7 6 8 6 7 8 8 8 7 5 5 5 7 9 12 14 15 17 18 21 23 21 21 21
12 12 14 14 13 11 10 7 7 5 5 6 7 7 7 8 8 6 4 2 3 5 6 6 7 8 6 5 4 3 5 7 10 11 13 14 16 17 19 20 20 20 22
7 12 11 8 8 9 8 7 6 8 10 9 10 10 8 8 7 6 5 3 3 2 4 5 6 6 4 4 2 4 6 8 9 10 11 13 14 16 18 19 18 18 20
10 9 2 3 5 8 8 7 7 8 7 10 10 10 11 9 7 5 4 4 3 5 5 5 4 4 3 3 3 4 6 7 7 8 10 11 14 15 17 18 18 19 18
1 5 5 7 7 8 7 8 9 9 10 9 9 10 11 9 7 7 5 2 2 3 3 4 4 3 2 2 4 5 5 4 5 6 9 11 13 14 16 18 18 18 18
2 5 7 7 7 7 7 8 9 10 9 9 9 10 13 10 7 5 4 3 4 4 5 4 3 2 2 2 3 3 2 3 4 6 8 10 12 14 16 17 17 17 17
8 8 6 6 6 7 7 6 7 7 7 8 8 9 13 10 6 6 6 6 5 5 5 5 3 1 2 2 1 1 1 3 4 6 8 9 11 13 15 16 17 17 16
9 8 7 5 5 6 6 7 7 7 7 8 9 10 13 10 8 8 8 7 7 6 5 5 3 1 1 2 2 1 1 2 4 6 7 9 10 12 13 15 16 17 17
7 6 5 4 4 6 7 7 7 8 7 8 9 10 10 10 9 8 7 7 6 6 6 6 4 3 3 3 3 3 2 2 3 5 7 8 9 11 11 12 13 15 16
7 6 5 4 4 5 5 7 7 7 7 7 7 7 8 10 9 9 9 8 7 8 8 7 6 5 4 5 5 4 5 3 3 4 5 7 7 8 10 10 11 12 14
6 6 5 5 4 4 5 6 7 7 7 7 6 7 8 9 10 10 10 10 10 9 9 9 8 7 7 6 5 4 3 3 3 2 3 5 5 6 8 9 11 10 11
Wind_Direction
214 214 213 212 215 218 226 222 212 217 214 212 208 210 213 215 220 232 241 247 248 251 254 258 263 271 271 277 274 260 256 250 263 288 292 284 289 296 299 296 296 294 296
213 213 213 211 218 215 216 223 225 211 220 213 212 214 218 215 216 228 239 248 246 253 259 261 271 273 269 277 275 263 262 256 255 273 291 293 286 290 295 296 296 291 292
211 213 214 215 216 218 219 208 216 201 218 223 222 220 218 223 225 231 238 241 243 253 260 265 268 268 270 272 267 268 272 275 267 264 280 291 292 293 296 296 293 293 293
214 215 216 213 217 220 216 209 207 205 216 225 226 223 225 229 232 234 236 241 249 255 267 264 263 267 257 269 276 275 278 277 280 274 280 287 293 299 295 292 295 297 296
214 217 219 218 217 213 197 183 189 182 268 255 241 233 228 232 231 231 234 243 254 264 266 272 266 262 265 267 274 284 280 279 283 283 286 290 293 302 302 302 297 299 295
213 220 223 219 207 198 187 180 180 188 191 254 259 241 242 234 232 234 238 251 260 268 273 266 262 266 268 275 282 281 277 278 280 279 288 292 296 300 303 304 303 299 299
215 221 220 213 204 191 183 179 184 191 202 214 235 237 241 240 238 238 245 260 264 264 267 265 268 269 277 278 282 286 292 290 277 276 282 288 297 300 303 302 298 289 284
215 218 218 210 204 196 186 186 185 200 204 219 228 231 235 239 240 244 260 273 277 273 270 269 270 277 276 282 285 288 289 284 277 277 281 289 294 296 296 292 288 286 285
217 216 213 210 201 196 192 186 193 205 213 216 226 222 220 227 235 240 254 286 294 286 277 272 267 268 272 283 286 282 288 286 288 300 304 305 306 306 305 297 289 291 289
211 211 208 206 204 200 200 190 202 210 211 199 203 216 226 226 224 229 234 238 247 275 264 262 264 263 275 281 277 275 280 296 302 307 309 307 304 303 305 296 293 290 294
204 198 192 197 197 192 182 179 179 189 191 181 208 227 220 249 232 233 242 250 266 262 254 252 254 271 275 277 274 262 279 295 301 305 308 308 311 310 311 308 304 297 290
176 193 183 186 176 177 178 179 179 179 174 175 199 208 223 229 254 259 252 265 258 242 254 249 246 271 274 281 278 263 283 297 300 305 307 311 313 313 315 313 310 304 297
168 180 170 172 170 176 172 164 162 180 182 177 198 191 226 241 253 254 265 249 242 231 242 246 277 287 290 284 257 262 286 295 300 301 310 313 312 312 314 317 315 311 311
158 172 171 170 160 161 163 170 176 183 180 182 209 237 218 192 230 232 233 226 224 228 270 309 298 302 283 231 244 274 291 294 297 303 309 312 314 319 321 322 317 321 318
166 171 171 166 161 157 159 163 174 176 192 204 208 231 195 175 216 206 191 198 210 231 270 277 284 264 248 239 257 283 291 296 307 313 314 319 321 324 323 326 323 323 318
161 166 168 156 155 158 162 160 190 216 228 222 211 189 164 170 192 186 197 219 250 263 264 256 255 247 237 241 265 285 294 313 320 319 320 323 323 325 327 326 330 331 327
170 171 165 166 174 181 180 172 175 105 141 165 163 162 153 163 172 174 169 208 248 250 244 248 246 239 237 249 261 283 313 317 319 319 323 323 325 326 330 328 334 337 334
182 171 163 155 161 173 189 213 200 177 169 150 144 140 139 154 156 162 166 162 163 191 232 235 234 240 240 240 262 310 321 320 322 324 327 328 331 333 333 332 332 335 338
137 150 172 211 188 202 202 190 185 186 168 148 143 149 157 164 169 179 188 213 241 252 242 234 230 228 224 253 293 318 314 315 319 328 331 334 337 339 338 338 336 338 339
10 287 192 176 164 161 171 179 182 183 173 168 175 175 174 172 186 191 188 197 240 246 224 206 202 221 256 276 307 312 314 316 329 333 333 336 339 341 342 343 346 344 346
194 155 163 149 149 146 157 167 172 175 180 190 195 185 185 187 193 189 186 207 222 215 202 205 184 178 233 286 314 316 314 329 337 333 333 337 339 343 345 347 350 352 356
150 144 146 148 146 155 160 163 178 189 188 188 185 190 193 196 195 189 182 197 212 208 194 185 178 209 283 289 274 270 324 332 338 335 334 336 340 344 347 349 354 358 0
162 160 149 157 166 165 171 176 178 184 183 192 193 189 190 201 201 192 186 191 198 199 196 188 192 229 243 212 193 184 299 339 339 337 334 338 341 347 350 351 356 1 4
138 135 141 156 171 182 183 185 187 189 191 196 200 200 197 197 195 194 196 191 194 196 197 196 204 217 219 203 208 214 248 306 323 328 332 337 340 347 353 360 1 8 8
134 141 146 145 163 192 185 202 210 207 207 211 202 200 213 216 216 211 209 199 196 197 203 199 205 211 219 213 213 220 239 261 310 322 336 334 339 345 357 2 9 11 20
131 128 129 139 162 185 201 210 217 216 216 215 217 226 228 226 227 223 216 209 206 205 200 200 207 205 204 196 201 222 251 253 269 299 343 330 350 359 358 6 8 15 26